ISS (ZVEZDA)

导读 | 豆包AI

ISS (ZVEZDA)(星辰号服务舱)是国际空间站(ISS)的核心组件,由俄罗斯制造,于2000年7月12日发射升空。作为国际空间站的关键组成部分,它提供了生命保障系统、居住空间和推进动力,为航天员长期驻留提供支持,是空间站运行和科学实验的重要保障,推动了国际航天合作与空间探索进程。

基本信息
目录编号:
26400
目录名称:
ISS (ZVEZDA)
国际标识:
2000-037A
轨道中心:
EARTH
卫星名称:
ISS (ZVEZDA)
卫星全名:
--
卫星状态:
在轨 (已飞行9376 天)
发射日期:
2000-07-12 UTC
国别 :
俄罗斯(独联体) (CIS)
星等 :
--
轨道信息
数据来源 国际轨道数据
星历时间: 2026-03-13T17:14:47+0800
16小时前
查看轨道信息
半长轴: 6798.883km
偏心率: 0.000791
轨道倾角: 51.632°
近地点辐角 188.223°
升交点赤经 54.084°
平近点角 171.863°
近地点: 415.368km
远地点: 426.124km
周期: 92.986分钟
每日圈数: 15.486256
详细信息
使用方式:
暂无
2D轨道图
3D轨道图
轨道高度分析图
轨道倾角分析图
轨道综合分析图
查看轨道综合分析图